Terug naar catalogus

DEB FREGAT

ActiefCommunicatieSSO
NORAD 67249·PAYLOAD·🇷🇺 Russia
Deze satellietnaam is nog niet bevestigd door officiële bronnen.

Gelanceerd Dec 28, 2025 vanaf Vostochny Cosmodrome

Loading…

Volgende Passages (komende 24 uur)

TLE

VersSource: Space-Track

Epoch: Sep 14, 2026, 09:49 UTC

1 67249U 25313B   26257.40906082  .00002093  00000-0  16061-3 0  9994
2 67249  97.5019 316.4458 0292158  45.1941 317.2624 14.74681186 38285

Volg DEB FREGAT in realtime met AllMySat

Download on the App Store